Torna al catalogo

COSMOS 1054

AttivoMilitareLEO
NORAD 11131·PAYLOAD·🇷🇺 Russia

Lanciato Dec 5, 1978 da Plesetsk Cosmodrome

Loading…

Prossimi Passaggi (prossime 24 ore)

TLE

AggiornatoSource: Space-Track

Epoca: Sep 14, 2026, 09:54 UTC

1 11131U 78109D   26257.41268721 -.00000026  00000-0 -63290-4 0  9999
2 11131  74.0148 223.5017 0028013 246.9895 284.7704 12.49314152178875

Traccia COSMOS 1054 in tempo reale con AllMySat

Download on the App Store